Showing default

TRANSIT 5B-2, 704

Orbit data source: Space-Track

TRANSIT 5B-2, 704 is a payload satellite owned by USN BuWeps (US) in LEO that was launched on Thu, 05 Dec 1963 UTC via a THOR ABLESTAR launch vehicle from the Air Force Western Test Range (AFWTR). Payload-class satellites include a variety of spacecraft equipped with specific instruments for various scientific and technological missions. These include communications satellites like Starlink; space stations such as the ISS; scientific satellites like the Hubble; Earth observation satellites from companies like Planet Labs, Umbra, and HawkEye 360; GPS; miniature CubeSats for education and research; and military/defense satellites.

Loading next visibility...
Identifier
704, 1963-049B
Orbit
LEO
Country
Flag of USUS
Related business
Manufacturer
APL
Mission
Spacecraft
Bus & Motor
TRANSIT 5, Unknown motor
Mass
75 kg wet, 75 kg dry
Launch date (UTC)
1963-12-05 (62 years ago)
Launch vehicle
THOR ABLESTAR
Launch site
Air Force Western Test Range (AFWTR)
Object type
Payload
Rocket body
Debris
Shape & HBR
Unknown
Radar Cross Section
Large (>1 m²)

Expand to show TLE details & history
Last TLE update: 11 hours ago

TLE from 11 hours ago
0 TRANSIT 5B-2
1 00704U 63049B   26033.59836597  .00000079  00000-0  11513-3 0  9999
2 00704  89.9162  71.5194 0033740 329.1709 197.6346 13.47110850 53209
Epoch: 2026-02-02T14:21Z
TLE epoch observation values (Epoch: 2026-02-02T14:21:38.819Z)
Latitude
13.27509°
Longitude
-96.70337°
Altitude
1,109.117 km
Speed
7.287 km/s
True Right ascension
16h 45m 59s
True Declination
13° 12' 07"
Sunlit
Object was in daylight at epoch
Visualization orbit readout
Latitude
Unknown
Longitude
Unknown
Altitude
Unknown
Speed
Unknown
Apparent Right ascension
Unknown
Apparent Declination
Unknown
Sunlit
N/A
Visualization observer readout
Local Sidereal Time
03:01:24
Azimuth
Unknown
Elevation
Unknown
Doppler factor
Unknown
Orbital elements
Apogee altitude
1,105.125 km
Perigee altitude
1,054.798 km
Semi-major axis
7,458.098 km
Eccentricity
0.00337
Inclination
89.9162°
RAAN
71.5194°
Arg. of periapsis
329.1709°
True anomaly
197.51794°
Mean anomaly
197.6346°
Eccentric anomaly
197.57622°
Mean motion
3.36978 °/min
Orbital period
106.83 mins
BSTAR
0.00011513
Loading maneuver chart data...
Computing Atmospheric mass density...
Loading historical data...
Loading historical data...
Loading historical data...
Loading historical data...
Loading historical data...
Loading historical data...
Loading historical data...

Documentation

Showing up to 5 results
|